Simultaneous Nadir Overpasses (SNOs) Predictions

Prediction of SNOs between NOAA-19 and TERRA Satellite Orbit:

Table of predicted SNOs for the next 14.0 days since TLE Epoch: 10/22/2022
Index Date (NOAA-19) Time (NOAA-19) Lat,Lon (NOAA-19) SZA (NOAA-19 ) Date (TERRA) Time (TERRA) Lat,Lon (TERRA) SZA (TERRA ) Distance(km) Time Diff (sec)
1 10/22/2022 13:01:43 -80.88,-159.67 85.95 10/22/2022 13:02:09 -80.89,-159.67 85.94 0.64 26
2 10/22/2022 13:52:35 80.79, 12.44 94.51 10/22/2022 13:51:29 80.96, 8.90 94.23 65.23 66
3 10/24/2022 16:52:38 80.89, -37.45 94.81 10/24/2022 16:53:13 80.88, -37.62 94.80 3.03 35
4 10/24/2022 17:43:32 -80.88, 129.97 85.17 10/24/2022 17:42:36 -80.89, 130.16 85.17 3.30 56
5 10/26/2022 20:43:22 -80.89, 84.83 84.46 10/26/2022 20:44:17 -80.88, 84.65 84.46 3.27 55
6 10/26/2022 21:34:26 80.88,-107.47 95.60 10/26/2022 21:33:39 80.89,-107.56 95.58 1.96 47
7 10/29/2022 00:34:17 80.89,-153.04 96.26 10/29/2022 00:35:20 80.88,-153.19 96.26 2.97 63
8 10/29/2022 01:25:10 -80.88, 14.79 83.68 10/29/2022 01:24:43 -80.89, 14.67 83.70 2.32 27
9 10/31/2022 05:16:05 80.89, 136.83 97.01 10/31/2022 05:15:46 80.88, 136.72 96.99 2.29 19
10 11/02/2022 09:06:49 -80.89,-100.90 82.31 11/02/2022 09:06:49 -80.90,-100.78 82.28 2.54 0



Historial Predications of SNOs between NOAA-19 and TERRA
